Location: Newark
(41.5175°N, 72.7122°W)
Time: 15:46:27
(UTC+00:00)

Envisat - Visible Passes

Search period start: 22 September 2020 00:00
Search period end: 02 October 2020 00:00
Orbit: 764 x 766 km, 98.1° (Epoch: 22 September)

Date Brightness Start Highest point End Pass type
(mag) Time Alt. Az. Time Alt. Az. Time Alt. Az.
22 Sep 6.1 23:18:51 10° SW 23:22:19 18° W 23:25:47 10° NW visible
23 Sep 6.0 09:47:51 10° NE 09:51:17 18° E 09:54:41 10° SE visible
25 Sep 5.3 10:12:26 10° NNE 10:16:56 31° E 10:21:24 10° SSE visible
25 Sep 5.9 23:06:51 10° SW 23:10:51 23° W 23:14:52 10° NW visible
26 Sep 6.3 09:37:10 10° ENE 09:39:48 14° E 09:42:24 10° ESE visible
27 Sep 6.4 23:34:15 10° WSW 23:36:33 13° W 23:38:52 10° WNW visible
28 Sep 5.7 10:01:21 10° NE 10:05:29 25° E 10:09:37 10° SSE visible
28 Sep 5.4 22:55:01 10° SSW 22:59:24 29° W 23:03:49 10° NW visible
29 Sep 6.6 09:27:12 10° ENE 09:28:17 11° E 09:29:22 10° E visible
30 Sep 6.2 23:21:51 10° SW 23:25:04 17° W 23:28:18 10° NW visible
01 Oct 6.0 09:50:23 10° NE 09:54:01 20° E 09:57:39 10° SE visible
